Regional Weather Roundup
Issued by NWS Cleveland, OH

Home | Current Version | Previous Version | Graphics & Text | Print | Product List | Glossary On
Versions: 1 2 3 4 5 6 7 8 9 10 11 12 13 14 15 16 17 18 19 20 21 22 23 24 25 26 27 28 29 30 31 32 33 34 35 36 37 38 39 40 41 42 43 44 45 46 47 48 49 50
000
ASUS41 KCLE 060310
RWRCLE
OHIO REGIONAL WEATHER ROUNDUP
NATIONAL WEATHER SERVICE WILMINGTON, OH
1000 PM EST MON DEC 05 2016

NOTE: "FAIR" INDICATES FEW OR NO CLOUDS BELOW 12,000 FEET WITH NO
SIGNIFICANT WEATHER AND/OR OBSTRUCTIONS TO VISIBILITY.

OHZ001>008-015>018-024>027-034-035-043-044-060400-
   NORTHWEST OHIO

CITY           SKY/WX    TMP DP  RH WIND       PRES   REMARKS
DEFIANCE       FAIR      29  25  85 E3        30.03F
FINDLAY        FAIR      31  25  78 SE6       30.02F WCI  25
TOLEDO EXPRESS FAIR      26  26 100 CALM      30.04F
TOLEDO EXEC    FAIR      31  28  89 E5        30.05F WCI  26
LIMA           FAIR      30  28  92 E8        30.00F WCI  22
$$

OHZ009>014-019>023-028>033-038-089-060400-
   NORTHEAST OHIO

CITY           SKY/WX    TMP DP  RH WIND       PRES   REMARKS
CLE-HOPKINS    FAIR      32  25  75 E5        30.10F WCI  27
CLE-LAKEFRONT  FAIR      35  28  75 E5        30.08F
CUY CO. ARPT   CLEAR     28  27  93 CALM      30.09S
LORAIN-ELYRIA  FAIR      28  24  85 E7        30.07F WCI  21
ASHTABULA      FAIR      28  27  96 CALM      30.11R
AKRON-CANTON   FAIR      31  25  78 E6        30.05F WCI  25
WOOSTER        FAIR      26  23  88 SE3       30.05F
MANSFIELD      FAIR      29  26  89 SE8       30.02F WCI  21
YOUNGSTOWN     FAIR      30  26  85 E5        30.08F WCI  25
$$

OHZ042-051>053-060>062-070>072-077>081-060400-
  SOUTHWEST OHIO

CITY           SKY/WX    TMP DP  RH WIND       PRES   REMARKS
CINC-COVINGTON CLOUDY    39  33  79 E10       29.95S
CINC-LUNKEN    FAIR      39  35  86 NE7       29.99S
HAMILTON       FAIR      34  30  85 E5        29.99F WCI  30
DAYTON         FAIR      33  29  85 E9        29.98F WCI  25
WRIGHT-PAT AFB FAIR      32  30  91 E7        29.98F WCI  26
DAYTON GENERAL FAIR      34  29  82 E9        29.97F WCI  27
WILMINGTON     FAIR      34  31  88 E9        29.98F WCI  27
$$

OHZ036-037-039>041-045>050-054>059-063>069-073>076-082>088-060400-
  CENTRAL AND SOUTHEAST OHIO

CITY           SKY/WX    TMP DP  RH WIND       PRES   REMARKS
COLUMBUS       FAIR      32  29  88 E7        30.02F WCI  26
OSU AIRPORT    FAIR      29  26  89 E7        30.02F WCI  22
BOLTON FIELD   FAIR      32  29  89 E6        30.01F WCI  26
RICKENBACK AFB FAIR      30  28  93 E8        30.02F WCI  22
NEWARK         FAIR      32  27  81 NE3       30.04S
MARION         FAIR      25  22  88 SE5       30.03F WCI  19
LANCASTER      FAIR      34  29  82 E5        30.02F WCI  30
ZANESVILLE     FAIR      32  27  81 CALM      30.05F
NEW PHILLY     FAIR      28  26  92 CALM      30.08S
$$




USA.gov is the U.S. government's official web portal to all federal, state and local government web resources and services.